User: anonymous
Location: Vancouver
(49.2500°N, 123.1330°W)
Time: 19:10:34
(UTC-07:00)
Language:

ISS - Orbit

View from above orbital plane
View from above orbital plane
View from above satellite
View from above satellite

Ground track
Ground track

The orbit data is extracted from the following two-line orbital elements,

1 25544U 98067A   14241.91220617  .00014027  00000-0  25239-3 0  9910
2 25544 051.6447 094.1663 0003592 061.5602 045.6836 15.50101924902761
Epoch (UTC): 29 August 2014 21:53:34
Eccentricity: 0.0003592
inclination: 51.6447°
perigee height: 414 km
apogee height: 419 km
right ascension of ascending node: 94.1663°
argument of perigee: 61.5602°
revolutions per day: 15.50101924
mean anomaly at epoch: 45.6836°
orbit number at epoch: 90276

The dashed part of the orbit path shows where the satellite is in the earth's shadow,  

DLR